Regional Weather Roundup
Issued by NWS

Home | Current Version | Previous Version | Graphics & Text | Print | Product List | Glossary On
Versions: 1 2 3 4 5 6 7 8 9 10 11 12 13 14 15 16 17 18 19 20 21 22 23 24 25 26 27 28 29 30 31 32 33 34 35 36 37 38 39 40 41 42 43 44 45 46 47 48 49 50
000
ASUS43 KFSD 261502
RWRSD

WEATHER ROUNDUP FOR SOUTH DAKOTA
NATIONAL WEATHER SERVICE SIOUX FALLS SD
900 AM CST WED NOV 26 2014

NOTE: "FAIR" INDICATES FEW OR NO CLOUDS BELOW 12,000 FEET WITH NO
SIGNIFICANT WEATHER AND/OR OBSTRUCTIONS TO VISIBILITY.


SDZ001>005-009-010-012>017-261600-
NORTHWEST AND NORTH CENTRAL SOUTH DAKOTA

CITY           SKY/WX    TMP DP  RH WIND       PRES   REMARKS
BUFFALO          N/A     26  21  81 CALM      30.13S
FAITH            N/A     21  17  84 CALM      30.24R
MOBRIDGE       CLOUDY    12   7  80 NE7       30.28R WCI   1
$$

SDZ012>016-024>037-041>051-057-063-072>074-261600-
SOUTHWEST AND SOUTH CENTRAL SOUTH DAKOTA

CITY           SKY/WX    TMP DP  RH WIND       PRES   REMARKS
RAPID CTY ARPT FLURRIES  24  21  88 SE6       30.22R WCI  17
PIERRE         CLOUDY    19  14  81 NE8       30.29R WCI   9
CUSTER         CLOUDY    20  13  74 CALM      30.10R
ELLSWORTH AFB  LGT SNOW  25  22  88 E5        30.21R WCI  19
PHILIP         CLOUDY    24  18  77 CALM      30.29R
PINE RIDGE     CLOUDY    25  19  78 N5        30.23R WCI  19
WINNER         CLOUDY    22  16  78 N15       30.27R WCI   9
$$

SDZ004>011-016>023-039-040-261600-
NORTHEAST SOUTH DAKOTA

CITY           SKY/WX    TMP DP  RH WIND       PRES   REMARKS
ABERDEEN       CLEAR      5  -3  69 N15       30.31R WCI -13
WATERTOWN      CLOUDY    10   5  80 N16       30.19R WCI  -7
SISSETON         N/A      7   3  84 N22       30.28R WCI -14
$$

SDZ017-020-022-023-036>040-048>070-261600-
SOUTHEAST SOUTH DAKOTA

CITY           SKY/WX    TMP DP  RH WIND       PRES   REMARKS
SIOUX FALLS    LGT SNOW  23  18  81 N20G25    30.10R WCI   8
HURON          LGT SNOW  10   6  84 N22G28    30.29R FOG     WCI -10
MITCHELL       CLOUDY    15  10  80 N23G32    30.24R BLWGSNOWWCI  -3
YANKTON        CLOUDY    25  19  80 NW24      30.15R WCI   9
$$

ABBREVIATIONS USED IN REMARKS
   TC - TEMPERATURE IN CELSIUS
  WCI - WIND CHILL INDEX
   HX - HEAT INDEX
  VSB - VISIBILITY




USA.gov is the U.S. government's official web portal to all federal, state and local government web resources and services.